Regional Weather Roundup
Issued by NWS

Home | Current Version | Previous Version | Graphics & Text | Print | Product List | Glossary Off
Versions: 1 2 3 4 5 6 7 8 9 10 11 12 13 14 15 16 17 18 19 20 21 22 23 24 25 26 27 28 29 30 31 32 33 34 35 36 37 38 39 40 41 42 43 44 45 46 47 48 49 50

642
ASUS43 KMKX 271400
RWRWI

WISCONSIN REGIONAL WEATHER ROUNDUP
NATIONAL WEATHER SERVICE MILWAUKEE/SULLIVAN WI
900 AM CDT TUE SEP 27 2016

NOTE: "FAIR" INDICATES FEW OR NO CLOUDS BELOW 12,000 FEET WITH NO
SIGNIFICANT WEATHER AND/OR OBSTRUCTIONS TO VISIBILITY.

WIZ001-002-006>008-014>016-023>028-271500-
NORTHWEST WISCONSIN

CITY           SKY/WX    TMP DP  RH WIND       PRES   REMARKS
SUPERIOR ARPT  CLOUDY    52  45  77 NW12G22   29.70R
ASHLAND        LGT RAIN  50  47  89 W10       29.65S
HAYWARD        CLOUDY    50  44  80 W8        29.69F
SIREN            N/A     51  43  74 W9G16     29.74F
CUMBERLAND     CLOUDY    46  41  81 W14       29.74S
RICE LAKE      CLOUDY    49  42  75 W13G18    29.75S
CHETEK         NOT AVBL
LADYSMITH      CLOUDY    50  46  85 W10G17    29.72S
EAU CLAIRE     NOT AVBL
MENOMONIE      MOSUNNY   49  42  75 W12       29.78S
NEW RICHMOND   CLOUDY    49  40  72 W16G23    29.78F
OSCEOLA        CLOUDY    50  42  74 W16       29.81S
$$

WIZ003>005-009-010-017-018-271500-
NORTH CENTRAL WISCONSIN

CITY           SKY/WX    TMP DP  RH WIND       PRES   REMARKS
MANITOWISH WTR NOT AVBL
ARBOR VITAE    CLOUDY    49  47  90 NW13G21   29.62S
WOODRUFF       CLOUDY    49  47  90 NW13G21   29.62S
RHINELANDER    CLOUDY    49  47  93 W13       29.63S
EAGLE RIVER    DRIZZLE   47  46  97 W12G20    29.60R
LAND O LAKES   CLOUDY    47  46  95 W10G17    29.60R FOG
PHILLIPS       CLOUDY    46  46 100 W6        29.66S FOG
TOMAHAWK       CLOUDY    47  45  90 W13G18    29.66S
MEDFORD        LGT RAIN  47  47 100 W10       29.69S
MERRILL        CLOUDY    48  46  95 W13       29.67F
$$

WIZ029-030-035-036-043>047-271500-
CENTRAL WISCONSIN

CITY           SKY/WX    TMP DP  RH WIND       PRES   REMARKS
WAUSAU         CLOUDY    50  46  86 W15       29.67S
MOSINEE        NOT AVBL
MARSHFIELD     LGT RAIN  51  43  74 W12G22    29.71S
STEVENS POINT  CLOUDY    50  42  73 W8        29.70S
WAUPACA        CLOUDY    54  43  68 W12       29.70S
WAUTOMA        CLOUDY    52  43  71 W10       29.73S
WISC RAPIDS    PTSUNNY   52  43  71 W13G20    29.73S
CAMP DOUGLAS   NOT AVBL
$$

WIZ011>013-019>022-031-037>040-048>050-271500-
NORTHEAST WISCONSIN

CITY           SKY/WX    TMP DP  RH WIND       PRES   REMARKS
ANTIGO         CLOUDY    47  45  91 W15G21    29.64F
SHAWANO        CLOUDY    55  44  68 W9G17     29.66S
OCONTO         NOT AVBL
STURGEON BAY   CLOUDY    55  46  71 W16G23    29.62F
GREEN BAY      PTSUNNY   53  46  77 W12G20    29.66R
MANITOWOC      NOT AVBL
APPLETON       PTSUNNY   52  39  62 W12G17    29.67S
CLINTONVILLE   NOT AVBL
OSHKOSH        CLOUDY    52  42  69 VRB7G17   29.70R
$$

WIZ032>034-041-042-053>061-271500-
SOUTHWEST WISCONSIN

CITY           SKY/WX    TMP DP  RH WIND       PRES   REMARKS
LA CROSSE      SUNNY     54  41  61 W16       29.80F
SPARTA         MOSUNNY   51  42  70 W7        29.78F
VIROQUA        SUNNY     51  38  63 W12G17    29.81S
BOSCOBEL       SUNNY     56  39  53 W10       29.84R
PRAIRIE DU CHI SUNNY     53  37  55 W9        29.85F
PLATTEVILLE    SUNNY     52  42  68 W15G21    29.86R
$$

WIZ056-057-062-063-064-067-068-271500-
SOUTH CENTRAL WISCONSIN

CITY           SKY/WX    TMP DP  RH WIND       PRES   REMARKS
REEDSBURG      NOT AVBL
BARABOO/DELLS  MOSUNNY   52  38  58 W15       29.77S
LONE ROCK      NOT AVBL
MINERAL POINT  SUNNY     52  37  58 W13G20    29.82S
MADISON        MOSUNNY   53  38  56 W9G18     29.78R
MIDDLETON      NOT AVBL
WATERTOWN      SUNNY     54  40  59 W17G25    29.76S
MONROE         SUNNY     52  37  58 W18G24    29.82S
JANESVILLE     SUNNY     55  37  50 W12G20    29.80F
$$

WIZ051-052-058>065-066-070>072-271500-
SOUTHEAST WISCONSIN

CITY           SKY/WX    TMP DP  RH WIND       PRES   REMARKS
MILWAUKEE      MOSUNNY   57  39  51 W15G24    29.76R
WAUKESHA       SUNNY     52  39  62 W15G21    29.77S
MILWAUKEE/TIMM SUNNY     54  37  54 W15G26    29.75F
RACINE         SUNNY     56  40  55 W14G23    29.77F
BURLINGTON     SUNNY     53  37  55 W14G21    29.78S
KENOSHA        SUNNY     56  40  55 W15G26    29.78S
FOND DU LAC    CLOUDY    53  42  66 W13G20    29.71F
SHEBOYGAN      CLOUDY    53  41  63 W17G24    29.70S
WEST BEND      MOSUNNY   52  39  62 W17       29.73S
JUNEAU         MOSUNNY   51  40  67 W14G20    29.75S
$$

LSZ147-162-271500-
LAKE SUPERIOR

STATION/POSITION TIME  TEMP    WIND        PRES    WAVE
                       AIR SEA DIR/SP/G            HT/PER
                 (UTC) (F)     (DEG/KT/KT) (MB)    (FT/S)
W MID LAKE BUOY  1250   50 49  290/ 16/ 19 1000.5R   4/ 5
DEVILS ISLAND    1300   52     280/ 19/ 22 1002.7S
PORT WING        1305   53     270/ 20/ 25 1004.4
SAXON HARBOR     1340   51     270/  8/ 12 1003.4F
$$

LMZ867-665-643>646-271500-
LAKE MICHIGAN

STATION/POSITION TIME  TEMP    WIND        PRES    WAVE
                       AIR SEA DIR/SP/G            HT/PER
                 (UTC) (F)     (DEG/KT/KT) (MB)    (FT/S)
CHAMBERS ISLAND  1300   54     230/ 12/ 19 1001.7F
N MID LAKE BUOY  1250   57 66  260/ 25/ 31 1000.1S   6/ 6
NORTHPORT PIER   1300   54     250/  7/ 16 1001.7F
KEWAUNEE LAKESHO 1300   54     260/  8/ 13 1003.5F
SHEBOYGAN LAKESH 1300   53     260/ 14/ 18 1005.2F
PORT WASHINGTON  1340   56     280/ 10/ 22 1007.1F
ATWATER BUOY     1300   55 56  240/ 14/ 17 1007.2F
MILWAUKEE LAKESH 1310   55     260/ 13/ 16   N/A
S MID LAKE BUOY  1250   60 70  260/ 25/ 29 1006.6F   6/ 5
KENOSHA   LAKESH 1300   54     250/ 11/ 16 1008.5F
$$

TC  - TEMPERATURE IN CELSIUS
VSB - VISIBILITY IN STATUTE MILES
WCI - WIND CHILL INDEX
HX  - HEAT INDEX





USA.gov is the U.S. government's official web portal to all federal, state and local government web resources and services.